567  
ASUS41 KLWX 192111  
RWRLWX  
 
REGIONAL WEATHER ROUNDUP  
NATIONAL WEATHER SERVICE BALTIMORE MD/WASHINGTON DC  
400 PM EST TUE NOV 19 2019  
 
NOTE: "FAIR" INDICATES FEW OR NO CLOUDS BELOW 12,000 FEET  
WITH NO SIGNIFICANT WEATHER AND/OR S TO VISIBILITY
.  
TC=TEMPERATURE CELSIUS  
 
* =NON NWS SITE. STATION DOES NOT REPORT PRECIPITATION (E.G. RAIN,  
SNOW, ETC.), THUNDER, OR FOG.
 
 
DCZ001-MDZ009-015-VAZ040>042-051-053>054-192200-  
WASHINGTON METRO  
 
CITY SKY/WX TMP DP RH WIND PRES REMARKS
 
WASHINGTON NAT MOCLDY 53 36 52 W7 29.82R  
DULLES MOCLDY 52 37 56 CALM 29.81S  
ANDREWS AFB MOCLDY 52 36 55 W6 29.80S  
FT BELVOIR MOCLDY 53 38 55 SW3 29.82R  
QUANTICO MOCLDY 50 45 83 S9 29.84R  
COLLEGE PARK* FAIR 52 32 47 NW3 29.81S  
LEESBURG* CLOUDY 50 37 62 W3 29.82S  
MANASSAS* FAIR 51 40 65 SW3 29.83R  
GAITHERSBURG* FAIR 51 36 56 VRB5 29.81S  
 

 
 
MDZ006>007-011-014-192200-  
BALTIMORE METRO  
 
CITY SKY/WX TMP DP RH WIND PRES REMARKS
 
BWI AIRPORT MOCLDY 53 36 52 W7 29.80R  
MD SCIENCE CTR N/A 52 40 63 MISG 29.81R  
MARTIN STATE MOCLDY 48 43 81 CALM 29.83R  
ANNAPOLIS FAIR 50 44 80 SE6 29.81R  
ABERDEEN* MOCLDY 50 41 71 SE3 29.82R  
FORT MEADE* FAIR 52 37 58 W5 29.83R  
 

 
 
MDZ012-015-019>023-192200-  
MARYLAND EASTERN SHORE  
 
CITY SKY/WX TMP DP RH WIND PRES REMARKS
 
OCEAN CITY FAIR 52 41 66 NW7 29.82R  
SALISBURY FAIR 50 42 74 SW3 29.82R  
BAY BRIDGE AP* FAIR 50 43 76 S6 29.82R  
CAMBRIDGE* CLEAR 52 41 66 CALM 29.82R  
EASTON* CLEAR 52 41 66 CALM 29.85S  
 

 
 
MDZ017>025-192200-  
SOUTHERN MARYLAND  
 
CITY SKY/WX TMP DP RH WIND PRES REMARKS
 
PATUXENT RIVER MOCLDY 52 41 66 W7 29.82R  
ST INIGOES FAIR 53 41 63 W5 29.81S  
LEONARDTOWN* FAIR 50 41 71 SW5 29.83S  
 

 
 
MDZ003>005-192200-  
NORTH CENTRAL MARYLAND  
 
CITY SKY/WX TMP DP RH WIND PRES REMARKS
 
FREDERICK* CLEAR 54 37 54 VRB6 29.82R  
HAGERSTOWN APT MOCLDY 52 36 54 S5 29.80R  
 

 
 
MDZ501>502-192200-  
WESTERN MARYLAND  
 
CITY SKY/WX TMP DP RH WIND PRES REMARKS
 
OAKLAND* CLOUDY 34 32 93 W3 29.79R  
CUMBERLAND* CLOUDY 49 33 54 NW3 29.85R  
 

 
 
VAZ025>031-192200-  
SHENANDOAH VALLEY  
 
CITY SKY/WX TMP DP RH WIND PRES REMARKS
 
WINCHESTER* CLOUDY 50 36 57 SW5 29.79R  
FRONT ROYAL* CLOUDY 50 37 62 CALM 29.79S  
LURAY* CLOUDY 50 36 57 CALM 29.81R  
NEW MARKET* MOCLDY 49 36 60 SW3 29.81R  
STAUNTON* CLOUDY 47 36 63 W6 29.83R  
WAYNESBORO* CLOUDY 46 35 63 CALM 29.82R  
 

 
 
WVZ021-048>050-054>055-192200-  
EASTERN WEST VIRGINIA PANHANDLE  
 
CITY SKY/WX TMP DP RH WIND PRES REMARKS
 
MARTINSBURG CLOUDY 50 35 56 S5 29.80R  
PETERSBURG* CLOUDY 49 34 55 W7 29.81R  
 

 
 
VAZ036>039-050-192200-  
CENTRAL FOOTHILLS  
 
CITY SKY/WX TMP DP RH WIND PRES REMARKS
 
CHARLOTTESVILL CLOUDY 54 36 50 CALM 29.81R  
CULPEPER* CLOUDY 51 40 65 CALM 29.83S  
ORANGE* FAIR 50 41 71 CALM 29.82R  
GORDONSVILLE* CLOUDY 51 41 68 CALM 29.81S  
WARRENTON* CLOUDY 51 40 66 CALM 29.82R  
 

 
 
VAZ055>057-192200-  
NORTH AND CENTRAL PIEDMONT  
 
CITY SKY/WX TMP DP RH WIND PRES REMARKS
 
FREDERICKSBRG* FAIR 49 45 86 S3 29.83R  
STAFFORD* FAIR 51 45 79 SW3 29.87R  
 

 
 
NCZ024-NYZ072-PAZ021-071-VAZ022-071-192200-  
OTHER REGIONAL OBSERVATIONS  
 
CITY SKY/WX TMP DP RH WIND PRES REMARKS
 
NEW YORK CITY CLOUDY 46 34 62 VRB7 29.83R  
PHILADELPHIA MOCLDY 51 36 56 NE3 29.81R  
PITTSBURGH CLOUDY 41 35 79 CALM 29.83R HAZE  
ROANOKE PTSUNNY 50 35 56 W6 29.84R  
RICHMOND CLOUDY 50 41 71 CALM 29.83R  
RALEIGH PTSUNNY 55 43 63 NE3 29.83R  
 

 
 
ANZ530>537-192200-  
MARINE OBSERVATIONS  
 
STATION/POSITION TIME TEMP WIND PRES
 
AIR SEA DIR/SP/G  
(UTC) (F) (DEG/KT/KT) (MB)  
THOMAS PT LIGHT 2100 49 51 160/ 7/ 8 1010.4R  
BALT KEY BRIDGE 2030 48 130/ 8/ 9 1009.1R  
LEWISETTA 2024 51 47 360/ 3/ 5 1009.7  
SOLOMONS ISLAND 2030 52 51 260/ 6/ 7 1009.3R  
PINEY POINT 2030 330/ 6/ 7 N/A  
 

 
 
 
 
CLICK HERE TO GO TO PREVIOUS BULLETINS.

The Nexlab VA Page
The Nexlab MD Page
The Nexlab WV Page Main Text Page